Location: Namasale
(1.5000°N, 32.6167°E)
Time: 07:36:51
(UTC+00:00)

Courier 1B Rocket - Visible Passes

Search period start: 20 April 2021 00:00
Search period end: 30 April 2021 00:00
Orbit: 920 x 1202 km, 28.2° (Epoch: 19 April)

Date Brightness Start Highest point End Pass type
(mag) Time Alt. Az. Time Alt. Az. Time Alt. Az.
20 Apr 5.3 01:53:22 60° WSW 01:54:10 64° SSW 02:01:42 10° SE visible
21 Apr 6.6 00:56:47 33° ESE 00:56:47 33° ESE 01:00:36 10° ESE visible
21 Apr 6.3 02:43:12 21° WSW 02:46:46 29° SSW 02:53:10 10° SSE visible
21 Apr 7.5 16:07:50 10° NW 16:10:15 12° NNW 16:12:41 10° N visible
22 Apr 6.0 01:46:32 40° S 01:46:32 40° S 01:52:34 10° SE visible
23 Apr 7.3 00:49:49 19° SE 00:49:49 19° SE 00:51:41 10° SE visible
23 Apr 6.7 02:36:13 18° SW 02:38:09 20° SSW 02:43:30 10° SSE visible
24 Apr 6.7 01:39:25 24° S 01:39:25 24° S 01:43:10 10° SSE visible
25 Apr 7.0 02:28:55 14° SSW 02:29:41 14° SSW 02:33:21 10° S visible
26 Apr 7.3 01:31:58 14° S 01:31:58 14° S 01:33:28 10° SSE visible
28 Apr 7.4 18:32:37 10° N 18:33:22 11° N 18:33:22 11° N visible
